Wind_Speed
10 11 12 11 10 11 11 12 12 11 11 11 10 10 10 10 10 10 10 10 11 11 12 12 12 13 13 14 14 15 15 15 16 16 17 16 16 16 16 17 17 18 18 18 18 18 18 18 19 19 20 20 21 22 23 24 25 26 26 26 26 27 30 29 29 32 33 34 32 32 34 33 34 34 35 36 36 37 37 37 37 38 38 38 39 39 40 41
13 13 13 13 13 13 12 11 11 10 9 9 8 8 8 9 10 10 11 11 11 12 12 12 12 13 14 14 15 15 16 16 17 17 17 16 16 16 17 17 18 19 19 19 20 20 20 20 20 21 22 23 23 24 25 26 26 27 27 27 27 28 29 28 31 33 33 34 33 33 34 34 34 34 36 37 37 38 38 39 39 39 39 39 40 40 41 41
16 16 16 16 15 13 12 11 9 8 8 6 6 6 6 7 8 9 10 11 11 12 12 13 13 13 14 14 14 15 16 16 15 15 14 14 15 15 16 17 18 18 19 19 20 21 22 22 22 23 24 24 25 25 26 25 26 27 27 28 28 28 28 28 31 32 32 34 33 33 34 34 34 34 35 35 36 37 37 37 38 38 39 39 40 40 40 40
18 17 16 15 13 12 11 9 7 6 5 4 3 3 5 6 8 9 10 11 12 12 12 13 12 13 13 13 13 13 14 14 13 12 12 13 13 14 15 15 16 16 17 18 19 20 21 22 22 23 24 24 24 25 25 25 26 26 26 28 28 28 28 28 30 31 32 33 33 33 33 33 33 33 33 33 34 34 34 35 36 36 37 38 38 38 39 39
18 16 14 12 11 9 8 6 5 4 2 1 1 3 5 7 8 9 10 11 11 11 12 12 12 11 11 11 10 11 11 11 11 11 11 11 12 12 13 14 14 15 16 17 17 18 19 21 22 22 22 23 23 24 25 24 26 26 25 26 27 28 29 28 29 30 31 32 32 32 32 32 32 32 32 32 33 32 32 33 34 35 36 37 37 38 38 38
17 15 13 11 10 8 7 5 4 3 1 1 3 4 6 7 8 9 10 10 10 10 11 10 10 9 9 9 8 9 10 11 11 11 11 12 12 12 13 14 14 15 16 16 17 18 18 19 20 21 22 22 23 23 24 24 25 26 24 25 26 27 27 27 28 29 29 30 30 31 31 31 31 31 31 32 32 32 32 33 34 35 35 36 37 38 38 39
15 14 12 10 9 7 6 5 3 2 1 3 5 6 7 8 9 9 9 9 9 8 9 8 7 7 7 7 8 9 10 11 11 12 13 13 14 13 14 15 15 16 16 17 18 18 19 19 20 20 21 21 22 22 23 23 24 25 23 24 25 26 26 26 27 27 28 29 29 30 30 31 31 31 31 31 32 32 33 33 34 35 35 36 36 37 38 39
13 12 10 9 8 7 5 4 3 3 4 5 6 7 7 7 8 8 7 7 6 6 6 6 7 7 8 8 9 10 11 12 12 13 13 14 14 14 15 15 16 16 16 16 17 18 18 18 18 19 20 20 21 22 22 23 23 24 24 24 25 25 26 26 27 27 28 28 29 29 30 30 31 31 31 31 32 33 33 34 34 35 35 36 36 37 38 39
12 10 9 8 7 6 5 5 4 4 5 6 5 5 4 4 4 5 5 4 5 5 6 7 8 8 9 9 10 11 12 12 12 12 13 14 14 14 14 15 16 16 16 16 16 16 16 17 17 18 19 19 20 21 22 23 23 23 24 24 24 24 25 25 26 26 27 28 28 29 30 30 31 32 32 32 33 34 35 35 35 36 36 36 37 37 38 39
10 9 8 7 7 6 5 5 5 5 5 4 3 3 3 3 3 3 3 3 4 5 6 7 8 9 9 10 10 11 12 12 12 12 13 14 15 15 15 15 15 15 15 15 15 16 16 17 18 18 19 19 20 21 21 22 22 22 23 23 23 24 25 26 26 27 28 29 30 31 31 32 33 33 33 34 35 36 36 36 36 36 36 37 37 37 38 38
9 8 7 6 6 6 5 5 5 5 3 2 2 3 3 3 3 3 4 4 5 5 7 8 8 9 10 10 11 12 13 13 13 13 13 14 15 15 15 15 15 15 15 15 15 15 16 16 17 17 18 18 19 20 20 21 22 23 24 25 26 27 27 28 29 30 31 31 32 33 33 33 34 34 34 35 36 36 36 36 36 36 37 37 37 37 37 37
7 7 6 6 6 5 5 6 6 5 3 2 3 3 3 3 4 4 5 6 6 7 8 9 9 10 11 11 11 12 13 14 14 14 14 13 14 14 15 15 15 15 15 15 15 15 15 15 16 17 17 18 20 21 22 23 24 25 26 28 29 30 31 31 31 32 32 33 33 34 34 35 35 33 34 36 36 36 36 36 36 37 37 37 37 37 37 37
6 5 5 6 6 6 6 6 5 4 2 2 2 2 3 3 4 5 6 6 7 8 9 9 10 10 11 11 12 12 13 14 14 13 13 13 13 14 14 15 15 14 14 14 14 14 15 16 17 19 20 21 22 24 25 26 27 28 29 31 31 32 32 31 32 33 34 34 34 35 36 36 36 33 34 36 36 36 36 37 37 37 37 38 38 38 38 38
5 4 5 7 7 6 5 5 4 2 2 2 2 3 3 4 5 6 6 7 8 8 9 10 10 11 11 11 12 12 12 13 14 14 14 14 14 13 13 13 13 12 12 13 14 15 17 19 20 22 23 24 25 27 28 28 29 30 31 32 32 33 33 31 32 34 34 34 35 35 36 37 36 34 35 36 36 36 36 36 37 37 37 37 37 38 38 38
4 5 6 7 7 6 5 4 2 2 2 3 3 4 4 5 6 7 7 8 8 9 10 10 11 11 11 11 12 12 12 12 13 14 14 14 13 13 12 12 11 12 13 15 16 18 20 22 23 24 26 27 28 29 30 30 30 31 31 32 31 32 34 33 33 34 34 34 34 35 35 36 34 33 34 35 34 35 35 35 35 36 36 36 37 37 38 39
4 5 6 7 7 7 5 4 2 3 4 4 5 5 6 7 7 8 8 9 9 10 11 11 12 12 12 12 13 13 13 12 12 12 12 12 12 12 12 12 13 14 16 18 20 22 23 25 26 27 28 29 30 30 31 31 31 30 31 33 33 32 34 34 33 33 34 34 33 34 34 35 34 32 33 34 34 34 34 34 35 35 35 36 36 37 37 38
4 5 7 7 7 7 5 4 3 4 5 6 6 6 7 8 8 9 9 10 11 11 12 12 13 13 13 13 14 13 13 12 11 11 10 11 11 12 13 14 16 18 20 22 23 25 26 27 28 29 29 30 31 31 32 32 32 32 31 32 33 33 33 35 34 32 33 34 33 33 33 33 33 33 33 33 33 33 34 34 34 35 35 35 35 36 36 36
4 6 8 8 8 7 5 3 3 4 5 6 6 7 8 9 9 10 11 11 12 12 13 13 13 13 13 14 14 13 12 11 10 10 10 10 12 14 16 17 20 22 23 25 26 27 28 28 29 30 30 31 31 31 32 32 32 33 32 32 32 32 32 33 33 33 32 33 33 33 32 32 33 32 32 33 32 33 33 33 34 34 34 34 34 34 34 34
5 7 8 9 8 7 5 3 3 4 5 6 7 8 9 10 10 11 11 12 12 13 13 13 13 13 13 13 13 12 12 11 10 10 11 13 15 17 19 21 23 24 26 27 27 28 29 29 30 30 30 30 31 31 31 31 31 31 31 31 31 32 32 31 32 33 32 32 32 32 32 31 33 32 31 31 32 32 32 32 32 33 33 33 33 33 33 33
7 8 9 9 8 7 5 4 4 5 6 7 8 9 10 10 11 11 12 12 13 12 12 13 13 13 13 12 12 12 11 10 11 13 15 17 18 20 22 24 25 26 27 28 28 29 29 29 29 30 30 30 30 29 29 29 29 30 30 30 30 31 32 31 31 31 31 31 31 31 31 31 32 32 30 31 31 31 31 31 31 31 31 31 31 32 32 32
8 10 10 10 9 7 5 5 5 6 7 8 9 10 10 11 12 12 13 13 12 12 12 12 12 12 11 11 12 12 11 12 14 16 18 19 21 23 25 26 27 27 28 28 28 29 29 29 28 29 29 29 29 29 29 29 29 29 29 30 30 29 30 30 29 30 30 30 30 29 29 30 31 30 30 30 30 30 30 30 30 30 30 31 31 31 31 31
9 11 11 10 8 6 5 6 6 6 7 9 10 11 12 13 13 13 13 12 11 12 12 12 12 11 11 12 12 11 11 15 18 20 21 22 23 25 26 27 27 28 28 28 28 28 28 28 28 28 28 28 28 27 28 28 28 28 28 28 28 28 28 28 27 28 29 29 29 28 27 29 29 28 29 29 29 29 29 29 29 29 30 30 31 31 31 31
10 11 11 10 8 5 5 6 7 7 8 9 10 11 12 13 13 13 12 11 11 11 11 11 10 10 11 13 13 12 14 18 20 22 23 24 25 26 27 27 27 27 27 27 27 27 27 27 27 27 27 27 26 26 26 26 26 26 26 26 26 26 26 26 26 26 27 27 27 26 25 27 27 27 28 28 28 28 28 29 29 29 30 30 30 30 30 30
11 11 11 9 7 5 5 6 7 7 8 9 10 12 12 13 12 11 11 10 10 11 11 10 9 11 13 14 15 16 18 21 22 23 25 26 27 27 27 27 27 27 27 26 27 27 27 27 26 26 25 25 25 24 25 24 24 24 24 24 24 24 25 25 24 25 25 25 26 26 24 26 26 25 27 27 27 28 28 28 28 29 29 29 29 29 29 29
11 11 10 8 6 5 5 6 7 7 9 10 11 12 12 11 11 10 10 9 10 10 10 9 11 13 14 15 17 19 21 23 24 25 26 26 26 26 26 26 26 26 26 26 26 26 26 25 25 24 24 23 22 22 22 22 22 22 22 22 22 22 22 23 23 23 24 23 24 24 23 24 24 24 25 26 26 26 27 27 27 27 27 28 28 27 28 28
11 11 10 8 6 5 6 6 7 8 9 10 11 11 10 10 9 9 9 9 9 9 9 11 13 15 16 18 20 21 23 24 25 26 26 25 25 25 25 25 25 26 26 25 25 24 23 23 22 21 21 20 20 20 20 20 20 20 19 20 20 20 21 21 22 22 22 22 22 23 23 22 23 25 25 25 26 25 26 26 26 27 27 28 28 28 28 29
11 10 9 7 5 5 6 7 7 9 10 11 11 10 9 8 8 8 8 9 9 9 11 14 16 17 19 20 22 23 24 24 24 25 24 24 24 24 25 25 25 25 23 22 21 19 19 18 18 17 17 17 17 17 17 17 17 17 18 18 18 19 20 20 21 21 21 22 21 22 24 23 22 25 26 25 27 27 27 28 28 28 29 29 30 30 30 30
10 10 8 6 5 6 7 7 8 9 11 10 9 8 7 7 6 7 8 9 10 11 14 16 18 19 21 22 23 24 24 23 24 24 24 24 24 24 24 23 21 20 19 17 16 15 14 14 15 15 15 15 15 15 15 15 16 16 17 18 18 18 19 20 20 21 21 22 22 22 24 25 23 25 27 27 29 30 30 30 30 30 31 32 32 33 33 33
10 9 7 6 6 7 7 8 9 10 10 9 7 6 6 5 5 6 8 10 11 14 16 18 19 20 22 23 23 23 23 23 24 24 24 24 23 21 20 18 17 16 15 14 14 14 14 14 14 15 15 15 15 15 15 16 17 18 19 19 19 19 20 21 22 23 23 23 24 25 27 28 25 26 30 30 30 32 32 32 32 31 32 33 33 34 34 34
9 7 6 6 6 7 8 9 10 10 9 7 6 5 4 4 5 7 9 11 13 15 17 18 20 21 21 22 22 23 23 24 24 23 23 21 19 17 16 16 15 15 14 14 14 14 14 15 16 17 17 17 18 18 18 19 19 20 21 22 22 21 22 23 23 25 25 25 25 27 29 31 28 27 32 34 33 33 33 33 34 34 33 33 33 34 35 35
8 7 6 6 7 7 8 9 9 8 7 5 4 3 4 5 6 9 11 12 14 16 18 19 20 21 21 22 22 23 23 23 23 21 20 18 16 16 16 15 15 15 14 14 14 15 15 16 17 18 19 19 20 21 21 21 22 23 23 24 24 24 24 24 25 25 26 27 28 29 30 32 31 28 31 35 37 35 34 34 35 35 35 34 34 35 36 37
7 6 6 6 7 8 9 9 8 6 4 3 2 3 4 6 8 10 12 13 15 17 18 19 20 21 21 22 22 22 22 22 21 19 17 16 16 17 18 17 16 16 15 15 15 16 17 17 18 19 20 21 21 22 22 22 23 24 25 26 27 28 28 28 28 29 29 30 30 30 31 32 31 30 29 33 36 37 35 35 35 36 37 37 37 37 38 38
7 6 6 7 8 9 9 7 6 4 2 2 2 3 5 7 9 11 12 14 16 17 18 19 20 21 21 22 22 22 22 21 20 18 17 17 18 19 19 19 18 18 17 17 17 18 18 18 20 21 21 22 23 24 25 24 25 26 28 29 29 31 32 31 31 32 32 33 32 31 32 32 32 32 31 32 34 35 35 36 36 37 39 40 40 40 39 39
7 6 7 8 9 9 8 6 4 2 1 1 2 4 7 8 10 11 13 15 16 17 18 19 20 21 21 21 21 21 21 20 19 19 19 19 19 19 20 20 19 19 19 19 20 20 21 21 22 23 24 24 25 27 28 28 28 29 30 31 32 32 34 34 35 35 35 36 34 32 31 30 30 30 30 31 33 34 36 38 38 39 41 42 42 41 41 40
7 7 7 8 9 7 6 4 2 1 1 2 3 5 7 9 10 12 14 15 16 17 18 19 20 20 20 21 21 21 20 20 19 20 20 21 21 21 21 21 21 21 21 22 22 23 24 24 25 25 26 27 27 28 29 30 30 30 31 32 33 33 34 35 36 36 38 39 36 32 29 27 27 27 28 33 37 38 39 39 39 41 41 42 41 41 41 41
7 8 8 8 7 5 4 3 2 2 1 2 4 6 8 9 11 13 14 15 16 17 18 18 19 20 20 20 20 20 20 20 20 21 21 22 22 22 22 23 23 23 24 24 25 25 25 26 27 27 27 28 29 29 30 31 31 31 32 33 34 34 34 36 37 37 38 40 39 35 30 26 26 27 29 35 39 40 40 39 40 41 41 40 40 40 41 42
8 8 8 7 6 4 3 3 3 2 2 3 5 7 8 9 11 12 13 15 15 16 17 18 18 19 19 20 20 20 21 21 21 22 22 23 22 23 23 24 24 25 25 26 26 26 27 27 27 28 28 28 29 29 30 31 32 33 33 34 35 36 36 37 38 39 41 43 42 39 34 28 26 30 33 35 37 37 38 39 40 40 40 40 40 41 42 43
8 8 7 6 5 4 4 3 3 3 2 4 5 7 8 10 11 12 13 14 15 16 17 17 18 18 19 19 20 21 21 22 23 23 24 24 24 24 24 25 25 26 26 27 27 28 28 28 27 28 28 29 30 30 30 30 32 33 34 35 36 38 39 39 39 41 43 45 45 43 39 31 26 29 34 34 35 37 39 41 41 41 41 41 42 42 43 44
8 7 6 6 5 4 4 4 4 2 3 4 5 7 8 9 11 12 13 14 15 15 16 16 17 18 19 20 20 21 22 23 24 24 25 25 25 26 26 26 27 27 27 28 28 29 30 30 29 29 30 30 31 32 32 32 32 33 34 35 37 38 40 41 41 42 43 46 48 47 46 35 23 26 33 34 37 40 42 43 43 43 43 44 44 44 44 46
7 7 6 6 5 4 4 4 3 2 4 4 5 7 8 9 11 12 13 13 14 15 15 16 16 17 19 20 21 22 23 23 24 25 26 26 26 27 27 28 28 28 29 29 30 30 30 31 31 31 31 31 32 32 33 34 33 34 34 36 37 39 41 42 42 42 42 46 47 49 50 34 20 25 35 37 40 42 44 45 45 45 45 45 46 46 46 47
7 7 7 6 6 5 5 5 3 3 4 4 5 7 8 9 11 11 12 13 13 14 14 15 16 17 19 20 21 22 23 24 24 25 26 27 27 28 29 29 29 30 30 30 31 31 31 32 32 32 32 33 34 34 34 34 35 35 36 37 38 40 42 44 45 44 43 45 45 49 52 33 21 28 37 38 41 44 45 46 45 45 46 46 47 48 48 49
8 8 7 7 6 5 5 4 3 4 4 4 6 7 8 9 10 11 12 12 12 13 13 14 16 17 19 20 21 22 23 24 25 25 27 28 28 29 30 30 30 31 31 32 33 33 33 33 33 33 33 33 35 35 35 35 36 36 36 38 40 41 43 45 47 47 46 47 44 48 52 35 26 33 39 39 44 45 46 47 46 46 46 46 48 49 50 51
9 8 7 6 6 5 5 3 3 4 4 5 6 7 8 9 10 10 11 11 11 12 13 14 16 17 19 20 21 22 23 24 25 26 27 28 29 29 30 31 31 32 32 33 34 34 35 36 36 36 35 34 34 35 36 36 37 37 37 38 40 42 44 45 47 47 48 48 44 48 54 44 37 40 41 42 46 47 47 48 47 47 47 46 48 50 52 53
10 9 7 6 6 6 4 3 3 4 4 5 6 7 8 9 9 10 10 11 11 12 13 15 16 18 19 20 21 23 24 25 26 27 27 29 30 31 31 32 32 33 34 35 35 35 36 37 38 39 39 38 39 39 39 40 40 39 39 39 40 42 44 46 47 48 50 48 45 50 55 50 45 45 44 45 49 50 50 50 49 49 49 48 49 50 52 54
10 8 7 7 6 5 4 4 4 4 4 6 7 7 8 8 9 9 10 11 12 12 14 15 17 18 20 21 23 24 25 26 27 28 29 30 31 32 32 33 34 34 35 36 36 36 36 36 38 39 40 41 41 41 42 42 42 42 41 41 42 42 45 46 48 50 51 51 51 53 54 52 48 47 48 49 52 54 53 51 51 52 51 51 52 53 54 55
9 8 7 7 6 6 5 5 5 5 5 6 7 7 7 8 8 9 10 11 13 14 15 16 17 19 20 22 24 25 26 27 29 30 31 31 32 33 34 34 35 35 36 37 38 38 38 37 37 38 39 40 41 40 42 44 43 43 43 43 43 44 45 47 48 49 51 55 56 53 54 56 51 47 49 51 53 54 54 52 53 53 53 52 54 55 56 57
9 8 8 6 6 6 6 6 5 5 5 6 7 7 7 8 9 10 11 12 14 15 16 17 19 20 21 23 25 26 27 28 30 31 32 33 34 35 35 36 36 37 37 39 39 40 41 40 39 39 39 40 41 41 42 45 45 44 44 44 44 45 46 47 49 49 50 57 58 52 53 59 54 49 50 53 54 55 54 54 55 55 54 53 55 57 58 59
9 8 8 7 6 6 7 6 5 6 6 6 7 7 7 8 9 11 12 14 15 16 17 19 20 22 24 25 26 28 29 30 31 32 33 34 35 36 37 37 38 38 38 40 40 42 44 43 42 42 41 41 43 43 44 46 46 46 45 45 45 46 47 48 49 48 50 56 58 54 55 58 55 52 53 55 56 56 56 57 57 56 55 55 57 59 59 60
9 9 8 6 6 7 7 6 6 6 7 7 7 8 8 9 10 12 13 15 16 17 19 21 22 24 26 27 29 30 31 32 34 34 35 36 36 37 38 38 39 39 40 41 42 43 46 46 45 47 46 43 43 45 46 48 49 48 46 45 46 48 49 49 49 48 51 55 57 56 57 56 53 54 56 56 57 58 58 58 59 58 57 57 58 60 61 61
10 9 8 6 7 8 7 7 7 7 7 8 8 9 9 11 12 13 15 16 18 20 21 23 25 27 28 30 31 33 34 35 36 36 37 37 37 38 40 40 40 41 42 43 43 44 47 49 48 50 51 47 46 47 48 50 52 50 47 46 49 50 50 51 51 50 53 56 56 58 60 57 54 55 58 58 58 59 59 60 60 59 58 59 61 62 62 62
10 10 9 8 7 8 7 7 7 8 8 8 9 10 11 12 13 15 17 18 20 22 24 25 27 29 31 32 33 34 35 36 37 38 38 39 39 40 41 42 42 42 43 44 45 46 48 50 51 53 55 53 50 50 52 53 54 53 51 50 51 53 53 53 53 53 55 57 58 59 61 60 58 59 60 60 60 61 62 62 63 61 60 62 64 64 64 64
10 9 9 8 8 8 8 8 8 9 9 9 10 11 12 14 15 17 18 20 22 24 26 28 29 31 32 34 35 36 37 38 39 39 40 40 41 41 42 43 43 44 44 45 47 47 49 51 53 54 57 57 55 54 56 58 58 56 55 55 55 56 57 57 56 57 57 59 60 61 62 62 62 63 63 63 63 63 64 65 65 64 63 64 65 65 66 66
Wind_Direction
167 157 155 159 158 158 162 162 162 166 169 174 181 192 204 214 223 230 237 243 247 251 255 259 263 267 270 273 276 278 279 279 278 278 278 280 281 280 279 278 277 276 276 276 276 275 274 273 272 270 268 267 268 270 271 272 273 273 273 273 274 273 273 275 276 275 276 277 278 277 277 277 276 277 278 278 279 279 280 280 280 279 279 279 278 278 277 276
152 150 150 148 146 149 151 150 155 161 165 172 183 196 208 221 233 240 246 252 257 261 264 267 271 274 276 279 280 281 281 280 279 280 283 284 283 282 281 279 277 276 275 275 275 275 274 273 273 273 272 272 273 275 275 276 276 276 276 276 276 275 277 280 279 278 278 278 279 278 278 278 277 278 278 279 280 280 281 282 282 282 282 281 280 279 279 278
138 138 136 135 139 142 142 145 152 160 169 178 191 208 222 235 244 250 256 260 264 268 271 274 276 279 280 282 282 282 282 282 284 287 290 288 286 284 282 280 278 277 276 275 275 275 275 275 275 275 276 277 278 278 279 279 279 278 279 278 278 279 280 279 278 279 280 280 280 279 279 279 279 279 278 279 279 279 280 280 280 281 281 280 280 280 279 279
130 130 130 132 136 138 139 144 150 157 164 175 200 230 245 253 257 260 263 266 270 273 275 278 279 281 283 283 283 283 283 286 291 293 292 290 288 286 284 284 283 282 280 278 276 276 276 277 278 278 278 280 280 280 281 281 279 279 280 281 282 282 280 280 281 281 281 282 282 282 282 282 281 281 280 280 279 279 279 279 278 279 279 278 279 279 279 279
121 121 121 122 124 128 128 128 128 128 126 157 250 265 266 269 271 272 274 275 278 280 281 282 283 284 284 284 283 284 286 290 294 294 293 292 290 288 289 289 287 285 283 281 279 278 277 277 278 279 279 280 280 281 281 281 281 281 282 283 284 283 283 283 282 281 282 283 283 284 284 283 283 282 281 280 280 280 279 278 278 277 277 278 278 279 279 279
112 111 111 109 109 114 116 115 107 101 93 305 286 281 281 284 285 286 286 286 286 286 286 285 286 285 281 282 282 285 289 293 297 297 297 295 294 293 292 290 288 288 286 285 283 281 280 279 280 281 282 282 283 283 283 283 283 284 285 284 284 284 285 284 282 283 283 283 283 283 283 283 282 282 281 281 281 281 279 278 278 278 278 278 279 279 280 280
107 107 107 107 108 110 112 109 96 74 3 318 302 298 298 299 296 294 290 288 288 286 286 286 285 283 282 286 289 292 295 298 301 301 299 298 298 297 294 292 290 288 286 285 284 283 283 282 283 284 285 286 286 286 285 285 285 286 286 286 285 285 285 285 284 283 283 283 283 282 283 283 282 282 282 281 281 281 280 279 279 280 280 280 281 281 281 281
106 104 103 101 100 98 91 80 56 19 342 319 308 306 304 303 298 295 292 290 292 290 291 293 294 296 298 301 300 300 300 300 301 299 299 298 298 297 296 294 292 290 287 286 284 284 284 284 285 285 286 287 287 287 287 287 287 287 287 287 286 287 286 286 285 285 284 284 283 283 283 283 283 283 284 284 283 282 282 282 282 282 282 282 282 282 282 282
104 99 94 88 83 76 65 50 24 353 330 315 312 312 309 306 298 292 290 289 291 295 298 300 301 302 302 302 301 298 297 298 299 300 301 300 300 300 298 296 295 294 292 290 289 288 289 289 289 289 288 288 288 288 288 289 289 289 289 288 288 287 287 287 287 287 286 286 285 285 285 285 286 286 286 286 285 285 285 285 285 285 285 284 284 284 284 284
100 92 84 73 63 53 41 25 359 339 328 323 324 329 332 331 321 311 306 304 304 304 303 301 300 301 302 302 301 299 298 301 303 304 304 303 303 302 299 298 297 297 296 295 294 294 294 293 293 292 292 292 291 291 292 292 292 291 291 291 290 290 289 289 289 289 288 288 288 288 288 288 288 288 288 287 287 287 288 287 287 287 287 286 286 286 285 285
96 85 72 58 47 36 24 7 348 342 349 354 354 358 355 346 337 326 316 314 315 314 309 305 306 308 309 307 306 305 303 304 305 304 303 302 301 300 299 299 299 298 297 296 296 296 295 295 295 295 295 295 295 296 296 295 295 294 293 293 292 292 292 292 292 291 291 290 290 290 289 289 289 290 289 288 288 289 288 289 289 288 288 287 287 287 286 286
91 76 62 47 35 25 15 1 352 357 12 14 7 5 352 336 328 321 316 316 318 318 314 310 312 312 310 308 306 304 303 303 304 303 302 300 299 299 299 300 300 299 299 299 299 300 299 300 300 300 300 300 300 300 299 298 297 296 295 294 295 294 294 295 294 293 292 292 292 292 291 290 290 291 290 289 290 290 290 290 289 289 288 288 287 287 287 287
85 71 50 35 25 16 8 357 354 2 12 5 357 350 338 323 316 316 316 319 319 316 312 309 309 307 306 304 302 301 301 302 304 304 303 302 301 300 300 300 302 303 303 304 305 304 304 303 304 303 303 302 301 301 300 300 298 298 297 295 296 294 294 295 294 293 293 293 293 293 292 291 292 292 291 290 291 290 290 290 289 289 288 288 288 288 287 287
86 64 36 26 16 5 358 353 354 359 352 345 333 328 327 318 316 318 319 319 316 313 309 307 305 303 303 302 302 303 305 305 306 307 307 306 305 304 303 302 303 306 308 309 309 307 305 304 303 303 303 302 301 301 300 299 298 297 296 295 295 294 293 294 293 293 293 293 292 292 291 291 292 292 290 290 290 289 289 289 288 288 288 288 288 288 288 287
71 42 22 15 3 353 351 353 356 346 334 330 327 328 326 322 323 323 321 318 314 312 308 307 306 304 305 306 306 308 310 310 310 310 310 309 310 309 307 305 304 307 308 309 308 307 306 305 304 304 303 302 301 300 299 299 298 298 297 296 296 295 295 295 294 295 294 293 293 292 292 291 291 291 290 289 289 288 288 288 288 288 289 288 288 288 288 288
47 21 8 2 354 347 349 354 353 342 334 331 333 331 328 325 324 322 319 318 316 313 310 310 308 307 311 311 310 311 313 314 313 311 309 307 308 309 308 306 305 306 307 307 307 307 307 306 305 304 303 302 301 301 300 300 299 298 298 298 298 298 297 297 297 296 295 294 293 293 293 293 292 291 290 290 290 290 289 289 289 289 289 289 289 289 289 290
26 5 356 352 349 344 346 352 346 336 330 329 331 329 328 325 323 322 319 318 317 315 313 313 311 311 314 313 312 314 314 315 314 310 306 303 304 308 308 307 307 307 307 307 307 307 307 306 305 304 303 303 303 303 302 302 301 299 299 298 299 299 297 297 297 295 294 294 293 292 293 293 293 292 291 291 291 291 291 291 290 290 291 291 291 291 291 291
6 354 350 347 345 341 340 342 332 326 326 328 330 328 326 324 322 321 318 317 316 314 313 312 311 312 314 313 314 315 315 315 312 306 303 302 305 308 309 309 308 308 307 307 307 307 307 306 305 305 304 304 304 303 302 302 301 300 300 298 297 296 295 295 295 294 294 294 294 294 293 293 292 291 292 293 293 292 292 292 292 293 293 292 292 292 292 292
349 344 344 342 339 334 329 326 317 320 327 328 328 326 323 320 320 318 315 314 313 312 311 311 311 313 315 315 314 316 316 315 312 308 306 304 306 308 309 310 309 308 307 307 307 307 307 306 306 305 305 304 303 302 300 300 299 298 298 297 297 297 296 296 296 296 296 296 296 296 295 295 294 294 295 295 294 294 294 294 294 294 294 293 293 292 292 292
335 335 337 335 332 328 321 317 317 322 327 326 324 321 318 317 316 313 312 312 312 311 311 312 313 315 317 317 316 318 315 314 315 314 310 308 308 309 309 309 309 309 308 308 308 308 307 307 306 305 304 303 302 301 300 299 299 299 298 298 298 298 297 298 297 298 298 298 298 297 298 297 296 297 297 295 295 295 295 295 295 294 294 294 293 293 293 294
325 327 329 329 327 323 315 313 318 322 325 323 322 320 318 316 314 311 311 313 313 313 314 314 316 317 318 319 318 316 312 314 317 315 312 310 309 309 309 309 310 310 310 310 310 309 308 307 306 305 304 303 303 303 302 301 301 300 299 299 298 298 299 299 300 299 298 298 297 298 298 297 297 298 297 296 296 296 296 296 295 295 295 294 294 294 295 295
321 323 324 324 321 313 308 311 315 319 322 321 321 320 317 315 313 312 313 315 315 316 317 318 319 320 320 322 320 314 309 314 317 316 314 312 312 312 312 312 312 312 312 312 311 310 309 308 307 306 306 305 305 304 303 302 301 300 300 300 300 300 299 299 299 298 297 297 297 298 298 297 297 298 297 297 297 296 296 296 296 295 295 295 295 295 296 297
317 318 318 318 311 300 301 305 309 315 319 319 318 316 315 314 313 313 315 318 319 319 321 322 323 323 323 323 320 314 310 313 316 315 315 315 315 315 314 314 314 315 315 314 313 311 310 309 308 307 306 306 305 304 303 302 301 301 301 301 300 300 299 299 298 297 298 299 298 299 299 297 298 299 298 298 298 297 297 297 296 296 296 295 295 296 297 297
312 312 313 311 301 290 291 296 305 313 315 314 314 314 314 313 313 315 317 321 323 322 322 323 324 323 321 320 319 317 316 317 317 317 317 317 317 317 316 317 317 316 315 314 313 311 310 310 309 308 307 306 305 304 303 302 302 302 301 301 300 301 301 301 301 300 301 301 301 302 301 300 300 300 299 299 299 298 299 298 298 298 297 297 297 298 298 298
307 307 309 304 290 282 286 292 301 307 310 310 311 313 314 313 314 316 320 325 325 323 322 323 324 322 321 322 322 322 321 320 320 320 320 320 320 320 319 319 317 315 314 313 312 311 311 310 309 308 307 306 306 306 305 305 305 304 303 303 303 304 304 304 304 304 304 304 304 306 306 305 305 305 303 302 302 301 301 301 301 300 300 300 300 300 300 300
304 304 304 296 280 279 289 295 300 304 307 309 312 314 314 315 316 317 322 328 328 324 322 323 324 325 325 326 326 326 324 324 323 323 323 323 322 321 319 317 316 314 314 313 313 313 313 312 311 311 311 311 311 310 309 308 308 308 307 308 308 309 309 309 310 310 310 311 312 312 312 313 312 310 308 306 305 305 304 303 303 303 303 303 302 303 302 302
302 302 299 289 279 287 296 299 303 306 307 310 313 315 316 317 317 319 324 328 329 327 326 326 327 328 329 330 330 329 328 328 327 326 325 324 322 320 318 317 316 316 317 318 319 320 319 320 321 321 320 319 318 315 314 314 314 315 316 317 318 317 316 316 316 316 316 316 316 313 313 316 315 310 309 309 307 307 307 306 306 306 305 305 304 304 304 304
300 299 293 286 287 296 299 302 306 308 309 311 313 314 316 316 316 322 325 327 328 328 329 330 330 332 333 333 333 332 332 331 329 327 325 324 322 321 320 320 321 323 327 331 333 335 337 338 337 335 332 330 330 328 325 325 325 326 325 324 323 321 320 319 318 318 318 318 317 315 314 317 320 314 311 311 310 308 309 308 308 307 305 304 303 303 304 304
298 295 288 287 293 297 300 305 307 308 309 310 312 314 315 315 322 328 327 329 330 329 333 335 335 336 336 336 336 335 335 333 331 329 327 326 325 326 328 333 336 340 344 348 351 352 352 351 348 346 344 342 341 338 335 334 332 330 328 326 325 324 322 321 321 319 319 318 318 319 317 316 321 318 312 311 309 307 308 307 305 304 302 301 301 301 302 303
293 288 282 285 293 298 302 305 306 306 307 309 312 315 316 320 328 331 330 331 331 332 336 337 338 339 339 339 340 339 337 336 334 333 331 332 334 340 348 352 353 354 357 358 358 357 355 353 351 349 346 344 342 340 337 335 333 330 328 327 325 324 322 321 320 317 316 315 315 318 316 314 318 318 313 311 308 306 306 304 302 301 300 301 301 301 302 304
286 278 275 283 292 297 300 302 303 303 304 307 310 313 322 328 330 331 332 333 334 336 339 340 341 342 343 344 344 343 341 340 339 338 338 343 349 358 3 3 3 2 1 359 357 355 353 351 348 345 343 340 339 338 334 333 331 327 325 324 322 319 316 314 313 310 311 312 313 316 315 314 318 320 316 311 307 305 304 301 300 300 299 300 301 303 305 307
276 272 275 283 291 296 299 299 298 300 301 304 307 314 330 335 333 333 335 337 339 340 342 344 346 347 348 348 348 347 346 346 346 345 348 357 4 7 7 7 6 3 360 356 354 352 350 346 343 341 338 335 334 333 329 328 326 323 322 321 319 317 314 312 312 311 310 309 310 313 314 314 318 320 316 308 303 303 302 300 300 299 301 303 306 308 309 309
267 270 277 286 292 295 295 293 291 294 296 299 312 323 335 337 336 337 339 341 343 344 346 348 350 352 352 352 352 352 352 353 354 354 357 7 11 10 8 6 4 1 358 355 351 348 344 341 338 337 335 332 331 329 326 325 323 323 322 321 320 318 315 313 313 311 309 307 307 311 313 315 317 319 315 305 300 300 299 300 302 304 307 309 311 311 311 311
263 271 279 286 291 291 288 282 278 275 279 307 326 334 337 337 339 343 344 346 347 348 350 352 354 356 356 355 355 356 356 357 359 358 1 7 10 8 5 2 360 357 355 352 349 345 342 340 337 335 334 331 329 328 326 325 325 325 323 322 321 319 316 315 314 312 310 307 308 311 314 316 318 318 312 301 296 296 296 301 307 309 311 311 312 312 311 310
262 270 278 284 285 282 274 262 249 239 258 305 325 336 338 338 345 347 347 349 351 352 354 356 357 358 359 359 358 358 358 358 359 359 0 4 5 3 0 357 355 352 350 349 347 345 343 340 337 336 335 332 331 331 328 327 327 326 324 323 322 320 318 317 315 314 312 309 310 313 317 321 317 311 302 293 293 295 299 305 309 309 310 310 311 311 309 310
264 271 276 278 276 267 251 229 215 226 259 313 326 334 339 342 347 349 349 352 354 355 358 359 0 1 3 4 3 2 2 1 2 2 2 3 3 1 358 356 354 351 350 349 346 345 344 340 338 338 336 334 332 333 332 330 329 329 327 326 324 322 321 320 317 316 314 311 312 314 319 325 318 303 294 292 294 298 302 306 308 308 310 311 311 310 309 310
265 271 270 267 257 241 223 209 211 232 272 320 327 332 339 344 348 350 352 355 357 358 1 2 4 6 7 8 7 7 7 6 6 5 5 5 3 2 360 357 356 354 353 352 349 347 345 344 343 340 338 337 334 334 335 333 331 330 330 328 325 322 322 321 319 318 316 313 313 314 317 327 322 304 297 298 299 300 302 304 306 309 312 312 311 311 311 311
264 265 260 248 232 216 206 207 219 240 293 322 323 331 341 345 348 352 355 357 359 1 4 5 7 8 9 10 8 8 8 7 7 6 6 5 3 1 0 358 357 355 354 353 351 349 346 346 346 342 341 340 337 336 336 335 334 332 331 329 326 323 322 321 320 320 318 314 314 313 315 326 324 303 301 303 302 302 303 305 309 312 314 313 312 311 311 311
256 251 240 225 213 204 202 215 226 249 307 320 323 334 344 347 351 355 357 358 1 4 6 7 9 10 9 9 8 8 7 6 6 6 5 4 2 0 359 358 356 354 353 351 350 348 345 344 344 343 343 341 339 339 336 337 337 334 333 330 327 325 323 321 320 320 318 314 315 313 313 326 331 308 304 308 306 306 307 308 311 313 313 312 311 310 309 310
241 232 222 210 203 199 208 222 235 276 307 315 327 338 345 350 354 356 357 359 3 5 6 8 10 10 9 9 8 8 7 7 6 6 4 2 1 360 358 356 354 352 351 349 347 346 344 342 341 341 341 338 338 338 336 337 337 336 336 332 329 327 323 321 320 319 317 314 314 313 312 325 347 322 312 313 311 310 309 310 311 311 311 311 309 309 308 308
224 216 210 203 201 203 217 230 249 290 299 312 331 339 346 352 356 356 357 0 3 4 6 8 9 8 8 7 7 6 6 5 4 4 2 0 358 357 355 354 352 350 348 347 345 343 342 340 339 339 339 337 336 335 335 335 334 335 335 332 331 329 326 324 320 319 317 312 314 314 309 319 352 330 316 315 313 311 310 310 311 310 310 310 309 308 308 307
210 205 201 201 204 215 228 239 261 282 293 316 333 339 347 353 355 355 357 360 2 3 4 5 6 5 5 4 3 3 2 1 0 359 358 357 355 353 352 351 349 347 346 344 342 341 340 338 337 337 337 337 334 332 332 332 332 333 333 331 331 330 328 325 321 320 317 314 318 313 305 317 343 326 314 313 311 310 309 310 311 310 310 310 309 309 308 308
202 199 197 200 210 221 229 241 262 274 294 321 332 341 348 352 352 353 356 358 359 0 360 1 2 1 0 359 358 358 357 356 355 354 353 353 351 349 348 347 346 344 343 341 340 339 339 337 335 334 335 335 333 330 329 330 331 331 331 330 329 328 326 322 320 319 316 317 320 308 304 319 332 319 312 311 308 307 307 308 310 310 310 310 310 310 310 310
197 194 195 203 214 223 228 242 260 274 303 323 330 340 347 349 349 350 353 355 354 354 354 355 356 355 355 354 352 351 351 351 351 349 348 347 347 345 343 342 342 341 340 338 337 336 336 336 333 332 334 335 333 331 330 330 331 331 329 328 327 325 323 319 319 318 316 317 314 305 308 320 322 315 314 310 305 305 306 306 308 308 309 310 310 310 310 310
195 194 200 210 219 224 229 240 258 279 307 320 328 337 342 344 345 347 349 349 346 346 347 349 349 349 350 350 349 347 346 346 346 345 344 343 342 342 340 338 338 337 337 335 333 333 333 333 331 329 331 333 333 331 329 328 329 329 328 327 326 323 320 318 318 318 317 315 309 308 314 317 315 315 315 309 304 304 305 306 307 307 309 310 309 309 309 308
197 200 207 215 224 229 231 237 257 285 305 317 326 332 336 338 340 342 343 342 340 339 342 344 344 345 345 346 346 344 342 342 341 341 340 338 338 338 337 335 334 333 333 332 330 329 329 330 329 326 328 330 329 328 325 325 326 327 327 327 326 321 317 316 316 317 317 311 308 315 318 313 314 319 314 307 303 303 304 306 305 306 308 308 308 308 307 307
201 208 212 218 229 233 233 240 261 287 302 313 320 325 329 332 333 337 337 335 335 336 339 340 340 340 340 340 341 340 338 337 337 337 336 335 334 334 334 333 331 330 330 329 328 326 326 328 326 323 324 326 326 325 323 323 324 325 326 327 324 319 316 315 314 315 314 308 309 318 317 311 316 321 313 307 304 304 306 306 304 305 306 306 306 306 306 306
208 213 215 220 231 236 240 251 271 288 300 309 315 318 322 325 329 333 332 330 332 334 337 338 337 337 336 335 335 335 335 334 333 333 333 332 331 330 331 330 328 327 327 326 326 324 323 325 324 320 321 324 324 322 321 321 322 323 326 327 323 318 316 314 312 312 311 307 310 316 312 310 317 318 310 307 306 306 305 304 303 304 305 305 304 304 304 305
214 217 217 223 234 243 252 263 276 290 300 306 311 312 315 321 325 327 328 328 330 332 334 334 334 334 334 332 331 332 332 331 331 330 330 330 329 327 328 328 326 325 325 324 324 322 321 323 322 319 319 322 322 319 318 319 319 322 327 327 322 318 317 313 311 311 309 307 311 313 310 312 316 312 307 307 306 305 304 303 302 303 303 303 302 302 303 304
217 219 218 226 238 249 259 269 279 291 299 303 306 308 312 317 321 324 325 326 328 330 331 331 331 331 331 331 330 329 330 329 328 328 328 327 326 325 325 325 324 323 323 323 322 321 320 320 320 317 317 320 320 317 316 317 317 321 327 326 322 319 317 313 312 311 309 310 312 311 309 312 313 308 306 306 306 305 304 302 301 302 302 301 300 301 302 302
218 219 222 231 244 253 263 272 282 292 297 299 303 307 311 316 319 322 324 325 326 328 329 329 329 329 329 329 328 328 327 327 326 326 326 325 325 323 323 323 323 322 322 321 320 320 318 317 318 315 315 318 318 316 315 315 316 321 325 325 322 320 317 314 313 311 311 311 312 310 310 312 311 307 306 307 307 306 305 303 301 302 301 300 300 301 301 302
222 225 230 241 253 261 268 276 285 291 294 297 302 306 310 315 317 321 323 324 325 326 327 327 327 327 327 326 326 326 325 325 324 324 324 323 323 321 321 321 321 320 320 319 318 318 316 315 315 314 313 316 316 315 314 314 315 320 323 323 323 321 317 315 313 312 312 312 311 311 311 311 309 307 307 307 307 306 305 303 302 301 300 299 299 300 300 301
Height
5786 5787 5788 5789 5790 5791 5792 5793 5794 5794 5795 5796 5796 5797 5797 5797 5797 5798 5798 5798 5798 5797 5797 5797 5796 5796 5795 5795 5794 5793 5793 5792 5792 5791 5791 5791 5791 5791 5790 5790 5790 5789 5789 5788 5788 5788 5787 5787 5787 5787 5786 5786 5785 5785 5785 5784 5784 5783 5782 5782 5782 5781 5779 5779 5778 5777 5776 5775 5776 5775 5774 5774 5773 5772 5771 5770 5769 5768 5767 5767 5766 5766 5766 5765 5764 5764 5763 5762
5787 5788 5789 5790 5791 5792 5793 5794 5794 5795 5796 5796 5797 5797 5797 5797 5797 5797 5797 5796 5796 5796 5796 5796 5795 5795 5794 5794 5793 5792 5791 5791 5790 5790 5790 5790 5790 5789 5789 5788 5788 5788 5787 5787 5786 5786 5786 5785 5785 5785 5784 5784 5783 5783 5782 5782 5781 5780 5780 5779 5779 5778 5777 5777 5775 5774 5773 5772 5772 5772 5770 5770 5770 5769 5768 5767 5766 5765 5764 5763 5762 5762 5761 5760 5759 5759 5758 5757
5788 5789 5790 5791 5792 5793 5794 5795 5795 5796 5796 5796 5796 5796 5796 5796 5796 5796 5795 5795 5795 5795 5795 5794 5794 5793 5793 5792 5792 5791 5790 5789 5789 5789 5789 5789 5788 5787 5787 5786 5786 5786 5785 5785 5785 5784 5783 5783 5783 5782 5782 5781 5781 5780 5779 5779 5778 5777 5777 5776 5776 5775 5774 5774 5772 5771 5770 5768 5768 5768 5767 5767 5766 5766 5765 5764 5763 5762 5761 5760 5759 5758 5757 5756 5755 5754 5754 5753
5789 5790 5791 5792 5793 5794 5794 5795 5795 5795 5795 5795 5795 5795 5795 5795 5795 5794 5794 5794 5794 5794 5793 5793 5792 5792 5792 5791 5790 5790 5789 5788 5788 5788 5788 5787 5786 5786 5785 5785 5785 5784 5784 5783 5782 5782 5781 5780 5780 5780 5779 5778 5778 5777 5777 5777 5775 5774 5774 5773 5772 5772 5771 5771 5769 5768 5767 5766 5765 5764 5764 5763 5762 5762 5761 5760 5759 5758 5758 5756 5755 5754 5753 5752 5751 5750 5750 5749
5790 5791 5792 5793 5793 5794 5794 5795 5795 5795 5795 5795 5795 5795 5794 5794 5794 5793 5793 5793 5792 5792 5792 5791 5791 5791 5790 5790 5789 5788 5788 5788 5787 5787 5786 5786 5785 5785 5784 5784 5783 5782 5782 5781 5780 5780 5779 5778 5778 5777 5777 5776 5776 5775 5774 5774 5772 5772 5772 5770 5769 5768 5767 5767 5766 5765 5764 5763 5762 5761 5760 5759 5759 5758 5757 5756 5755 5755 5754 5753 5752 5751 5750 5749 5748 5747 5746 5745
5791 5792 5793 5794 5794 5795 5795 5795 5795 5795 5795 5795 5794 5794 5794 5793 5793 5792 5792 5791 5791 5791 5791 5790 5790 5790 5789 5789 5788 5788 5787 5787 5786 5786 5785 5784 5784 5784 5783 5782 5782 5781 5780 5779 5779 5778 5777 5777 5776 5775 5774 5774 5773 5772 5771 5771 5770 5769 5769 5768 5767 5765 5764 5764 5763 5762 5761 5760 5759 5758 5757 5756 5755 5754 5753 5753 5751 5751 5750 5749 5748 5747 5746 5745 5744 5743 5742 5742
5792 5794 5794 5795 5795 5795 5795 5795 5795 5795 5794 5794 5794 5793 5793 5792 5792 5791 5791 5791 5790 5790 5790 5790 5789 5789 5789 5788 5788 5787 5786 5786 5785 5785 5784 5783 5783 5783 5782 5781 5780 5780 5779 5778 5777 5776 5776 5775 5774 5773 5772 5771 5770 5770 5769 5768 5767 5766 5766 5765 5764 5763 5762 5761 5760 5759 5758 5757 5756 5755 5754 5753 5752 5751 5750 5749 5748 5747 5746 5745 5744 5744 5743 5742 5741 5740 5738 5737
5794 5795 5795 5796 5796 5795 5795 5795 5795 5794 5794 5793 5793 5792 5792 5792 5791 5791 5791 5790 5790 5790 5790 5789 5789 5788 5788 5788 5787 5786 5785 5785 5784 5784 5783 5782 5782 5781 5780 5779 5779 5778 5777 5777 5776 5775 5774 5773 5772 5772 5771 5770 5769 5768 5767 5766 5765 5764 5763 5763 5762 5761 5760 5759 5758 5757 5756 5755 5753 5752 5751 5750 5748 5748 5747 5746 5744 5743 5742 5742 5741 5740 5739 5738 5737 5736 5734 5733
5795 5796 5796 5796 5795 5795 5795 5795 5794 5794 5794 5793 5792 5792 5792 5792 5791 5791 5790 5790 5790 5789 5789 5788 5788 5788 5787 5787 5786 5785 5785 5784 5783 5783 5782 5781 5780 5780 5779 5778 5777 5777 5776 5775 5774 5773 5772 5771 5771 5770 5769 5768 5767 5766 5765 5764 5763 5762 5761 5760 5760 5759 5757 5756 5755 5754 5753 5752 5750 5749 5748 5747 5745 5744 5743 5742 5740 5739 5738 5737 5736 5735 5734 5733 5732 5731 5730 5729
5796 5796 5796 5796 5795 5795 5795 5795 5794 5794 5793 5793 5792 5792 5792 5792 5791 5791 5790 5790 5790 5789 5789 5788 5788 5787 5787 5786 5786 5785 5784 5783 5783 5782 5781 5780 5779 5778 5777 5777 5776 5775 5774 5774 5773 5772 5771 5770 5769 5768 5767 5766 5765 5764 5763 5762 5761 5760 5759 5758 5757 5756 5755 5754 5753 5751 5750 5748 5747 5745 5744 5743 5742 5740 5739 5738 5736 5735 5734 5733 5732 5731 5730 5729 5728 5726 5725 5724
5796 5796 5796 5795 5795 5795 5795 5794 5794 5793 5793 5792 5792 5792 5792 5791 5791 5791 5790 5790 5789 5789 5788 5788 5787 5787 5786 5785 5785 5784 5782 5782 5781 5780 5780 5779 5778 5777 5776 5775 5775 5774 5773 5772 5771 5770 5769 5768 5767 5766 5765 5764 5763 5762 5761 5760 5759 5758 5756 5755 5754 5753 5752 5751 5749 5748 5746 5745 5743 5742 5741 5739 5738 5736 5735 5733 5732 5731 5729 5728 5727 5726 5725 5724 5723 5722 5721 5720
5796 5796 5796 5795 5795 5795 5794 5794 5793 5792 5792 5792 5792 5792 5792 5791 5791 5791 5790 5789 5789 5788 5788 5787 5786 5786 5785 5784 5784 5783 5781 5781 5780 5779 5779 5778 5777 5776 5775 5774 5773 5772 5772 5771 5770 5769 5768 5767 5766 5765 5764 5762 5761 5760 5759 5758 5756 5755 5754 5752 5751 5750 5749 5747 5746 5744 5742 5741 5739 5738 5736 5735 5734 5733 5731 5729 5728 5726 5725 5724 5723 5721 5720 5719 5718 5717 5716 5715
5796 5796 5796 5795 5795 5794 5793 5793 5792 5792 5792 5792 5792 5792 5792 5791 5791 5790 5790 5789 5788 5788 5787 5786 5786 5785 5784 5784 5783 5782 5781 5780 5779 5778 5777 5776 5776 5775 5774 5773 5772 5771 5770 5769 5768 5767 5766 5765 5764 5763 5762 5760 5759 5758 5757 5755 5754 5752 5751 5749 5748 5746 5745 5744 5742 5740 5739 5737 5735 5734 5732 5731 5731 5729 5727 5725 5724 5722 5721 5720 5718 5717 5716 5714 5713 5712 5711 5710
5796 5796 5795 5795 5794 5794 5793 5793 5793 5792 5792 5793 5792 5792 5792 5792 5791 5790 5789 5789 5788 5787 5786 5786 5785 5785 5784 5783 5782 5781 5780 5779 5777 5777 5776 5775 5774 5773 5772 5772 5771 5770 5769 5768 5767 5766 5765 5764 5762 5761 5760 5758 5757 5755 5754 5753 5751 5749 5747 5746 5745 5742 5741 5741 5739 5737 5736 5734 5732 5730 5728 5727 5727 5725 5723 5722 5720 5718 5717 5715 5714 5712 5711 5710 5709 5707 5706 5705
5796 5795 5795 5795 5794 5794 5793 5793 5793 5793 5792 5792 5792 5792 5792 5791 5791 5790 5789 5788 5788 5787 5786 5785 5784 5784 5783 5782 5781 5780 5779 5778 5776 5775 5774 5774 5773 5772 5771 5770 5770 5769 5768 5767 5766 5764 5763 5762 5760 5759 5757 5756 5754 5753 5751 5750 5748 5746 5744 5742 5741 5739 5737 5737 5735 5733 5732 5730 5728 5726 5724 5723 5723 5721 5719 5718 5716 5714 5713 5711 5710 5709 5707 5706 5704 5703 5702 5700
5796 5795 5795 5795 5794 5794 5793 5793 5792 5792 5792 5792 5792 5791 5791 5791 5790 5789 5789 5788 5787 5786 5785 5784 5784 5782 5782 5780 5779 5778 5778 5777 5776 5775 5774 5773 5772 5771 5770 5769 5769 5768 5766 5765 5764 5762 5761 5759 5758 5756 5755 5753 5751 5750 5748 5746 5745 5743 5741 5738 5737 5736 5733 5732 5732 5729 5727 5726 5724 5722 5721 5719 5718 5717 5715 5713 5712 5710 5709 5707 5706 5705 5703 5702 5700 5699 5697 5695
5796 5796 5795 5795 5794 5793 5793 5792 5792 5792 5792 5792 5791 5791 5791 5790 5790 5789 5788 5787 5786 5785 5784 5783 5782 5781 5780 5779 5778 5777 5777 5776 5775 5774 5773 5772 5771 5770 5769 5768 5767 5766 5765 5763 5762 5760 5759 5757 5755 5754 5752 5750 5748 5746 5744 5743 5741 5739 5738 5735 5734 5732 5730 5728 5727 5726 5724 5722 5720 5719 5718 5716 5714 5713 5711 5709 5708 5706 5705 5703 5702 5700 5699 5697 5696 5694 5692 5691
5796 5795 5795 5794 5793 5793 5793 5792 5792 5792 5792 5791 5791 5791 5790 5790 5789 5788 5787 5786 5785 5784 5783 5782 5781 5780 5779 5778 5777 5776 5775 5775 5774 5773 5772 5772 5771 5769 5768 5767 5766 5764 5763 5761 5760 5758 5756 5754 5753 5751 5749 5747 5745 5743 5741 5739 5737 5735 5734 5732 5730 5729 5727 5725 5723 5722 5720 5719 5717 5715 5714 5712 5710 5709 5708 5706 5704 5703 5701 5699 5698 5696 5695 5693 5691 5690 5688 5687
5795 5795 5794 5794 5793 5793 5793 5793 5792 5792 5792 5791 5791 5790 5790 5789 5788 5787 5786 5786 5785 5784 5783 5782 5780 5779 5778 5777 5776 5775 5775 5774 5773 5772 5772 5771 5770 5768 5767 5766 5764 5762 5761 5759 5757 5755 5754 5752 5750 5748 5746 5744 5742 5740 5738 5737 5735 5732 5731 5729 5727 5725 5723 5722 5720 5718 5717 5715 5714 5711 5710 5709 5706 5705 5705 5702 5700 5699 5697 5695 5694 5692 5691 5689 5688 5686 5684 5683
5795 5795 5794 5794 5793 5793 5793 5792 5792 5792 5791 5791 5790 5790 5789 5789 5788 5787 5786 5785 5784 5783 5782 5781 5779 5778 5777 5776 5775 5775 5774 5773 5772 5771 5770 5769 5768 5767 5765 5764 5762 5760 5758 5756 5755 5753 5751 5749 5747 5745 5743 5741 5739 5737 5735 5734 5732 5730 5728 5726 5725 5723 5720 5719 5717 5715 5714 5712 5710 5708 5707 5705 5703 5702 5701 5699 5697 5695 5694 5692 5690 5689 5687 5685 5684 5682 5681 5679
5794 5794 5793 5793 5793 5792 5792 5792 5791 5791 5791 5790 5790 5789 5789 5788 5787 5786 5785 5784 5783 5782 5781 5780 5779 5778 5777 5776 5775 5774 5773 5772 5771 5771 5769 5768 5766 5765 5763 5761 5759 5758 5756 5754 5752 5750 5748 5746 5744 5742 5740 5738 5736 5734 5732 5731 5729 5727 5725 5723 5722 5720 5718 5716 5715 5712 5711 5709 5708 5706 5704 5702 5700 5699 5697 5695 5694 5692 5690 5689 5687 5685 5684 5682 5681 5679 5677 5676
5794 5793 5793 5793 5792 5792 5791 5791 5791 5790 5790 5790 5789 5788 5788 5787 5786 5785 5784 5783 5782 5781 5780 5779 5778 5777 5776 5776 5775 5774 5773 5772 5770 5769 5768 5766 5764 5762 5760 5759 5757 5755 5753 5751 5749 5747 5745 5743 5741 5739 5737 5735 5733 5732 5730 5728 5726 5724 5723 5721 5719 5718 5716 5714 5713 5710 5708 5707 5705 5704 5702 5699 5698 5696 5694 5692 5691 5689 5687 5686 5684 5682 5681 5679 5677 5676 5674 5672
5793 5793 5793 5792 5792 5792 5791 5791 5790 5790 5790 5789 5789 5788 5787 5786 5785 5784 5783 5782 5782 5781 5780 5779 5778 5777 5776 5775 5774 5773 5772 5771 5769 5767 5766 5764 5762 5760 5758 5756 5754 5752 5750 5748 5746 5744 5742 5740 5738 5736 5734 5733 5731 5729 5727 5726 5724 5722 5721 5719 5717 5716 5714 5712 5711 5708 5706 5704 5702 5701 5700 5697 5695 5694 5691 5690 5688 5686 5684 5683 5681 5679 5677 5676 5674 5672 5671 5669
5793 5793 5792 5792 5792 5791 5791 5790 5790 5790 5789 5789 5788 5787 5787 5785 5784 5783 5783 5782 5781 5780 5779 5779 5778 5777 5776 5775 5774 5772 5771 5769 5767 5765 5764 5762 5759 5757 5755 5753 5751 5749 5747 5745 5743 5741 5739 5737 5735 5733 5732 5730 5729 5727 5725 5723 5722 5721 5719 5717 5715 5714 5712 5710 5708 5706 5704 5702 5700 5698 5697 5694 5693 5691 5689 5687 5685 5683 5681 5680 5678 5676 5674 5672 5671 5669 5668 5666
5792 5792 5792 5792 5791 5791 5791 5790 5790 5789 5789 5789 5788 5787 5786 5785 5784 5783 5782 5782 5781 5780 5779 5778 5778 5777 5775 5774 5773 5771 5769 5767 5765 5763 5761 5759 5757 5755 5753 5751 5749 5747 5745 5743 5741 5739 5737 5735 5733 5731 5730 5728 5727 5725 5723 5721 5720 5718 5717 5715 5713 5712 5710 5708 5706 5704 5702 5700 5697 5695 5694 5692 5690 5688 5686 5684 5682 5680 5679 5677 5675 5673 5671 5670 5668 5666 5664 5663
5791 5791 5791 5791 5791 5791 5791 5790 5790 5789 5789 5788 5787 5786 5785 5784 5783 5782 5782 5781 5781 5780 5779 5778 5777 5776 5774 5773 5771 5769 5767 5765 5763 5761 5759 5757 5755 5753 5751 5749 5747 5745 5743 5741 5739 5737 5734 5733 5731 5729 5727 5726 5724 5723 5721 5719 5718 5716 5715 5713 5711 5709 5707 5705 5703 5701 5699 5697 5695 5692 5690 5689 5687 5685 5683 5681 5679 5678 5676 5674 5672 5670 5668 5666 5664 5663 5661 5659
5791 5790 5790 5790 5790 5790 5790 5790 5789 5789 5788 5787 5786 5785 5784 5784 5783 5782 5782 5781 5781 5780 5779 5778 5776 5775 5773 5772 5770 5768 5766 5764 5761 5759 5757 5755 5753 5751 5749 5747 5744 5742 5740 5738 5736 5734 5732 5731 5729 5727 5726 5724 5723 5721 5720 5718 5716 5714 5712 5711 5709 5707 5705 5703 5701 5699 5697 5695 5693 5691 5688 5687 5686 5683 5680 5679 5676 5675 5673 5671 5669 5667 5665 5663 5661 5659 5658 5656
5790 5789 5789 5789 5789 5789 5789 5789 5788 5788 5787 5786 5786 5785 5784 5784 5783 5782 5782 5781 5780 5779 5778 5777 5775 5774 5772 5770 5768 5766 5764 5762 5760 5758 5756 5753 5751 5749 5746 5744 5742 5740 5738 5736 5735 5733 5731 5729 5728 5726 5725 5723 5721 5720 5718 5716 5714 5712 5710 5708 5707 5705 5703 5701 5699 5697 5695 5692 5691 5689 5686 5684 5683 5680 5677 5676 5673 5671 5670 5668 5666 5664 5661 5659 5657 5655 5654 5652
5789 5788 5788 5789 5789 5789 5789 5788 5787 5787 5786 5786 5785 5784 5784 5783 5783 5782 5782 5781 5780 5779 5777 5776 5774 5773 5771 5769 5767 5764 5762 5760 5758 5756 5754 5751 5749 5747 5744 5742 5740 5738 5737 5735 5733 5732 5730 5729 5727 5726 5724 5722 5721 5719 5717 5715 5713 5711 5709 5707 5705 5703 5701 5699 5697 5694 5693 5691 5688 5686 5684 5682 5681 5678 5674 5673 5671 5668 5666 5664 5662 5660 5658 5656 5654 5651 5649 5648
5788 5788 5788 5788 5788 5788 5788 5787 5787 5786 5786 5785 5785 5784 5784 5783 5783 5782 5781 5781 5779 5778 5777 5775 5774 5772 5770 5768 5766 5763 5761 5759 5756 5754 5752 5749 5747 5745 5743 5741 5739 5737 5736 5735 5733 5732 5730 5729 5727 5725 5724 5722 5720 5718 5716 5714 5712 5710 5707 5705 5703 5701 5699 5697 5695 5693 5690 5689 5687 5685 5682 5679 5678 5676 5671 5668 5667 5665 5662 5660 5657 5656 5654 5652 5649 5647 5645 5643
5787 5787 5788 5788 5788 5788 5787 5786 5786 5786 5785 5785 5784 5784 5784 5783 5783 5782 5781 5780 5779 5778 5776 5775 5773 5771 5769 5767 5764 5762 5760 5757 5755 5753 5750 5748 5746 5744 5742 5740 5739 5737 5736 5734 5733 5731 5730 5728 5727 5725 5723 5721 5719 5717 5715 5713 5710 5708 5706 5703 5701 5699 5698 5696 5693 5691 5689 5686 5684 5682 5680 5677 5675 5673 5668 5664 5661 5660 5658 5656 5653 5651 5649 5647 5645 5643 5641 5639
5787 5787 5787 5787 5787 5787 5786 5786 5785 5785 5785 5784 5784 5784 5783 5783 5782 5782 5781 5780 5778 5777 5775 5774 5772 5770 5768 5765 5763 5761 5759 5757 5754 5752 5750 5748 5745 5743 5741 5740 5738 5737 5735 5734 5732 5731 5729 5728 5726 5724 5722 5720 5718 5716 5714 5712 5709 5707 5704 5701 5699 5697 5694 5693 5690 5688 5686 5683 5682 5680 5677 5674 5672 5670 5666 5661 5656 5654 5653 5651 5649 5647 5644 5643 5641 5639 5637 5635
5786 5786 5787 5786 5786 5786 5786 5785 5785 5785 5784 5784 5784 5784 5783 5783 5782 5781 5780 5779 5778 5776 5775 5773 5771 5769 5767 5765 5763 5760 5758 5756 5754 5752 5750 5747 5745 5743 5741 5740 5738 5737 5735 5733 5732 5730 5729 5727 5725 5723 5721 5719 5716 5714 5712 5710 5707 5705 5702 5699 5697 5694 5691 5689 5688 5685 5683 5680 5679 5678 5675 5672 5669 5666 5662 5657 5653 5650 5648 5646 5645 5643 5640 5638 5637 5635 5633 5631
5786 5786 5786 5786 5786 5785 5785 5785 5784 5784 5784 5784 5784 5783 5783 5782 5782 5781 5780 5778 5777 5775 5774 5772 5770 5768 5766 5764 5762 5760 5758 5756 5754 5752 5750 5747 5745 5743 5741 5740 5738 5737 5735 5733 5731 5729 5727 5726 5724 5722 5720 5717 5715 5712 5710 5707 5705 5703 5700 5697 5695 5692 5689 5686 5684 5682 5679 5677 5676 5675 5673 5670 5667 5663 5657 5652 5648 5646 5644 5643 5641 5639 5637 5635 5633 5631 5628 5626
5785 5785 5785 5785 5785 5785 5784 5784 5784 5784 5784 5784 5784 5783 5783 5782 5781 5780 5779 5778 5776 5775 5773 5771 5769 5768 5766 5764 5762 5760 5758 5756 5754 5752 5750 5747 5745 5743 5742 5740 5738 5737 5735 5733 5731 5729 5727 5725 5723 5720 5718 5716 5713 5711 5708 5706 5704 5701 5699 5696 5693 5690 5687 5684 5681 5679 5675 5672 5672 5672 5671 5668 5665 5660 5655 5648 5644 5642 5641 5640 5639 5636 5634 5632 5629 5627 5624 5621
5785 5785 5784 5784 5784 5784 5784 5784 5784 5784 5784 5784 5783 5783 5783 5782 5781 5780 5778 5777 5776 5774 5772 5771 5769 5767 5765 5763 5761 5760 5758 5756 5754 5752 5750 5748 5746 5744 5742 5740 5738 5736 5734 5732 5730 5728 5726 5724 5722 5719 5717 5714 5712 5710 5707 5704 5702 5699 5696 5693 5690 5688 5685 5681 5678 5676 5673 5668 5667 5667 5667 5666 5662 5657 5652 5647 5643 5641 5639 5638 5636 5633 5631 5629 5626 5622 5619 5617
5784 5784 5784 5784 5784 5784 5783 5784 5784 5784 5784 5784 5783 5783 5782 5781 5780 5779 5778 5777 5775 5774 5772 5770 5769 5767 5765 5763 5761 5760 5758 5756 5754 5752 5750 5748 5746 5744 5742 5740 5738 5736 5734 5732 5729 5727 5725 5723 5720 5718 5716 5713 5711 5708 5706 5702 5699 5697 5694 5691 5687 5685 5682 5679 5675 5672 5668 5664 5662 5662 5662 5662 5658 5651 5648 5645 5642 5639 5637 5635 5633 5630 5627 5624 5621 5618 5615 5612
5783 5783 5783 5783 5783 5783 5783 5783 5784 5784 5783 5783 5783 5782 5782 5781 5780 5779 5777 5776 5775 5773 5771 5770 5768 5766 5765 5763 5761 5759 5758 5756 5754 5752 5750 5748 5746 5744 5742 5740 5738 5735 5733 5731 5729 5726 5724 5722 5720 5717 5714 5712 5709 5706 5704 5702 5698 5695 5692 5689 5685 5681 5678 5676 5673 5670 5665 5660 5657 5655 5656 5658 5655 5648 5644 5642 5639 5636 5633 5631 5629 5626 5623 5619 5616 5613 5610 5607
5783 5782 5782 5783 5783 5783 5783 5783 5784 5783 5783 5783 5783 5782 5781 5780 5779 5778 5777 5775 5774 5772 5771 5769 5768 5766 5765 5763 5761 5759 5757 5755 5753 5751 5749 5747 5745 5743 5741 5739 5737 5735 5732 5730 5728 5725 5722 5720 5718 5715 5712 5710 5707 5704 5701 5699 5697 5694 5691 5687 5683 5679 5676 5672 5670 5667 5663 5657 5653 5649 5649 5654 5652 5644 5641 5639 5635 5631 5628 5626 5624 5621 5618 5614 5611 5608 5605 5601
5782 5782 5782 5782 5782 5782 5783 5783 5783 5783 5783 5783 5782 5781 5781 5780 5778 5777 5776 5775 5773 5772 5771 5769 5768 5766 5764 5763 5761 5759 5757 5755 5753 5751 5749 5747 5745 5743 5741 5739 5736 5734 5731 5729 5726 5724 5721 5718 5716 5713 5711 5708 5705 5702 5699 5696 5694 5691 5688 5685 5681 5678 5673 5669 5667 5665 5661 5655 5652 5645 5642 5649 5650 5642 5637 5635 5630 5627 5623 5621 5619 5616 5613 5609 5606 5603 5599 5596
5781 5781 5782 5782 5782 5782 5783 5783 5783 5783 5783 5782 5782 5781 5780 5779 5778 5777 5775 5774 5773 5772 5770 5769 5767 5766 5764 5762 5760 5758 5757 5755 5753 5751 5749 5746 5744 5742 5740 5738 5735 5733 5730 5728 5725 5722 5720 5717 5714 5712 5709 5706 5703 5700 5697 5694 5691 5689 5686 5682 5679 5675 5670 5665 5662 5660 5658 5654 5651 5645 5638 5644 5648 5641 5635 5631 5626 5622 5619 5616 5614 5611 5607 5604 5600 5597 5593 5590
5781 5781 5781 5781 5782 5782 5782 5782 5782 5782 5782 5782 5781 5780 5779 5778 5777 5776 5775 5774 5772 5771 5770 5768 5767 5765 5763 5762 5760 5758 5756 5754 5752 5750 5748 5746 5743 5741 5739 5736 5734 5731 5729 5726 5723 5720 5718 5715 5712 5710 5708 5705 5701 5697 5695 5693 5690 5687 5684 5679 5676 5671 5667 5662 5657 5654 5651 5648 5648 5642 5634 5638 5644 5638 5632 5628 5622 5618 5614 5611 5608 5605 5602 5599 5595 5591 5587 5583
5780 5781 5781 5781 5781 5782 5782 5782 5782 5782 5781 5781 5780 5779 5778 5777 5777 5775 5774 5773 5772 5771 5769 5768 5766 5764 5763 5761 5759 5757 5755 5753 5751 5749 5747 5745 5742 5740 5737 5735 5732 5729 5727 5724 5721 5718 5715 5712 5709 5707 5705 5703 5700 5696 5693 5690 5687 5685 5681 5678 5673 5669 5665 5660 5655 5651 5647 5644 5643 5636 5628 5631 5636 5633 5628 5624 5618 5613 5609 5606 5603 5600 5597 5593 5589 5585 5580 5577
5780 5780 5780 5781 5781 5781 5781 5781 5781 5781 5781 5780 5779 5779 5778 5777 5776 5775 5774 5773 5771 5770 5769 5767 5765 5764 5762 5760 5758 5756 5754 5752 5750 5748 5746 5743 5741 5738 5736 5733 5730 5727 5725 5722 5719 5716 5713 5709 5705 5702 5700 5698 5695 5692 5688 5685 5683 5681 5678 5675 5671 5667 5661 5656 5653 5648 5643 5642 5638 5630 5624 5625 5627 5624 5621 5618 5611 5607 5604 5600 5597 5594 5590 5587 5584 5579 5575 5570
5779 5780 5780 5780 5781 5781 5781 5781 5781 5780 5780 5780 5779 5778 5777 5776 5775 5774 5773 5772 5771 5769 5768 5766 5765 5763 5761 5759 5757 5755 5753 5751 5749 5746 5744 5741 5739 5737 5734 5731 5728 5725 5722 5719 5716 5713 5711 5708 5703 5699 5697 5693 5690 5687 5683 5681 5679 5677 5674 5671 5667 5663 5658 5653 5649 5643 5638 5635 5631 5626 5622 5620 5621 5619 5615 5610 5604 5600 5597 5594 5590 5587 5584 5580 5577 5573 5569 5565
5779 5779 5780 5780 5780 5780 5780 5780 5780 5780 5779 5779 5778 5777 5776 5775 5774 5773 5772 5771 5770 5769 5767 5765 5764 5762 5760 5758 5756 5754 5752 5749 5747 5745 5742 5740 5737 5735 5732 5729 5726 5723 5720 5717 5713 5710 5708 5706 5702 5698 5695 5692 5689 5685 5681 5677 5676 5673 5671 5667 5663 5659 5654 5649 5645 5640 5635 5627 5622 5623 5619 5611 5613 5616 5610 5604 5599 5594 5591 5588 5584 5581 5579 5575 5570 5566 5562 5559
5778 5779 5779 5779 5780 5780 5780 5780 5779 5779 5779 5778 5777 5776 5775 5775 5774 5772 5771 5770 5769 5767 5766 5764 5762 5761 5759 5757 5755 5752 5750 5748 5745 5743 5740 5737 5735 5732 5729 5726 5723 5720 5717 5714 5710 5706 5703 5702 5699 5695 5693 5691 5687 5683 5679 5675 5672 5670 5667 5664 5659 5654 5650 5646 5641 5638 5633 5621 5616 5620 5616 5604 5605 5609 5603 5596 5592 5588 5585 5582 5578 5575 5573 5569 5564 5559 5555 5551
5778 5778 5779 5779 5779 5779 5779 5779 5779 5778 5778 5777 5776 5775 5775 5774 5772 5771 5770 5769 5768 5766 5765 5763 5761 5759 5757 5755 5753 5751 5748 5746 5743 5741 5738 5735 5732 5730 5727 5724 5720 5717 5714 5710 5707 5703 5699 5697 5695 5691 5689 5688 5683 5679 5676 5671 5668 5666 5664 5660 5655 5649 5645 5641 5637 5634 5628 5618 5613 5615 5611 5603 5601 5601 5596 5590 5586 5582 5579 5575 5571 5569 5566 5562 5557 5552 5548 5545
5777 5778 5778 5778 5778 5779 5779 5778 5778 5777 5777 5776 5775 5775 5774 5773 5771 5770 5769 5768 5766 5765 5763 5761 5759 5757 5755 5753 5751 5748 5746 5743 5741 5738 5736 5733 5730 5727 5724 5721 5718 5714 5711 5707 5704 5699 5694 5692 5690 5685 5683 5684 5680 5675 5671 5667 5664 5662 5660 5656 5650 5645 5640 5635 5632 5629 5623 5615 5611 5608 5602 5600 5600 5594 5588 5584 5580 5576 5572 5568 5564 5561 5559 5554 5549 5544 5541 5537
5777 5777 5777 5778 5778 5778 5778 5777 5777 5776 5776 5775 5774 5773 5773 5771 5770 5769 5768 5766 5765 5763 5761 5760 5758 5755 5753 5751 5748 5746 5743 5741 5738 5735 5733 5730 5727 5724 5720 5718 5714 5711 5707 5703 5700 5696 5690 5686 5684 5678 5675 5677 5676 5671 5666 5662 5658 5656 5655 5652 5645 5639 5634 5629 5625 5622 5616 5610 5606 5601 5594 5594 5594 5587 5580 5577 5574 5569 5565 5561 5557 5555 5551 5546 5540 5536 5533 5530
5776 5776 5777 5777 5777 5777 5777 5777 5776 5775 5775 5774 5773 5772 5771 5770 5769 5768 5766 5765 5763 5761 5759 5757 5755 5753 5751 5748 5746 5743 5741 5738 5735 5732 5730 5726 5724 5720 5717 5714 5710 5707 5703 5699 5695 5692 5687 5682 5679 5673 5668 5668 5668 5664 5660 5656 5652 5650 5649 5645 5640 5633 5627 5623 5619 5615 5609 5604 5600 5594 5588 5586 5584 5579 5573 5570 5566 5561 5557 5552 5548 5547 5544 5537 5531 5527 5524 5520
5775 5776 5776 5776 5776 5776 5776 5776 5775 5774 5774 5773 5772 5771 5770 5769 5767 5766 5765 5763 5761 5759 5757 5755 5753 5751 5748 5746 5743 5741 5738 5735 5732 5729 5726 5723 5720 5717 5713 5710 5707 5703 5700 5696 5691 5688 5683 5678 5674 5668 5662 5660 5660 5656 5651 5647 5644 5643 5641 5637 5632 5626 5620 5615 5612 5608 5603 5598 5592 5586 5582 5578 5574 5569 5565 5563 5558 5553 5548 5544 5539 5537 5535 5529 5523 5519 5514 5511